Weather in Krasnosamarskoye

Russia / Samara Oblast     53°03′28″N   50°48′10″E
temp.,
°C
wind,
m/s
gust,
m/s
humid.,
%
clouds,
%
prec.,
mm/h
press.,
hPa
HPBL,
m
1 march, mon
mon101:00−15nnw489695 0.2 1015245
04:00−19nw449675 0.3 101779
07:00−21nw34973 0.0 101961
10:00−18nw46943 0.0 1020236
13:00−15nw359143 0.0 1021340
16:00−13nnw359063 0.0 1022513
19:00−18nw119895 0.0 102220
22:00−19wsw239550 0.0 102221
2 march, tue
tue201:00−18sw349718 0.0 102044
04:00−14sw5109556 0.0 1018242
07:00−12sw61293100 0.0 1014318
10:00−9sw81492100 0.1 1012476
13:00−4sw81495100 0.9 1008715
16:00−1sw81396100 1.8 1005701
19:00−1sw81496100 1.5 1003698
22:000wsw61197100 2.5 1002493
3 march, wed
wed301:00−1w489391 0.5 1002230
04:00−6w349489 0.5 100266
07:00−9w339460 0.0 100329
10:00−7w349429 0.0 1004130
13:00−4wnw349428 0.0 1004295
16:00−2wnw469261 0.1 1005611
19:00−5nw3795100 0.1 1005175
22:00−10nw459268 0.1 100892
4 march, thu
thu401:00−11wnw469581 0.0 100899
04:00−13w479450 0.0 1009101
07:00−13wsw47940 0.0 1010120
10:00−9wsw6109328 0.0 1010322
13:00−6sw61192100 0.0 1009465
16:00−3sw81391100 0.1 1007953
19:00−2sw91692100 0.2 1005859
22:000sw9168998 0.5 1004952
5 march, fri
fri501:000sw101687100 0.1 10021047
04:00−1sw101884100 0.1 1001791
07:00−1wsw91790100 0.1 1002806
10:000w81395100 0.1 1005877
13:00−1wnw467999 0.2 1008667
16:00−2wnw248698 0.2 1011353
19:00−7nnw118999 0.0 101221
22:00−10ne228993 0.0 101421